Location: Nelson
(41.2830°S, 173.2830°E)
Time: 22:01:07
(UTC+12:00)

Daily predictions for brighter satellites

Satellite Brightness Start Highest point End
(mag) Time Altitude Azimuth Time Altitude Azimuth Time Altitude Azimuth
COSMOS 2428 2.8 17:39:37 10° NNW 17:45:18 70° ENE 17:51:01 10° SSE
Cosmos 1354 Rocket 4.5 17:43:09 10° S 17:48:09 39° ESE 17:53:05 10° NE
Cosmos 2360 Rocket 3.7 17:46:08 10° WNW 17:51:16 35° WSW 17:56:28 10° S
Cosmos 2219 Rocket 2.3 17:45:46 10° NNW 17:51:24 87° WSW 17:57:05 10° SSE
Lacrosse 5 3.5 17:47:54 10° SSW 17:51:31 19° SSE 17:55:07 10° ESE
Cosmos 1953 Rocket 3.6 17:48:48 10° N 17:53:17 87° E 17:57:52 10° S
Cosmos 1825 Rocket 4.3 17:48:56 10° NNW 17:53:20 60° W 17:57:46 10° S
USA 276 2.2 17:50:15 10° SW 17:53:28 60° SSE 17:56:39 10° ENE
Nadezhda 4 Rocket 4.0 17:47:41 10° N 17:53:50 82° E 18:00:06 10° S
Cosmos 1092 Rocket 4.2 17:48:49 10° NNE 17:54:45 50° E 18:00:49 10° SSE
Cosmos 2058 3.2 17:56:00 10° NNE 17:59:56 45° E 18:03:58 10° SSE
Meteor 2-8 Rocket 4.5 17:54:45 10° S 18:00:58 64° E 18:07:04 10° NNE
SMAP 4.1 17:58:03 10° SE 18:02:02 26° E 18:05:58 10° NNE
Atlas Centaur 2 3.7 17:58:08 10° NW 18:02:41 28° N 18:08:13 10° ENE
Cosmos-2242 4.5 17:59:02 10° SSW 18:03:14 43° W 18:07:22 10° NNW
Cosmos 1486 Rocket 4.3 17:58:15 10° SSW 18:03:35 75° WNW 18:08:52 10° NNE
Cosmos 2026 Rocket 4.3 17:58:32 10° NNE 18:04:37 48° E 18:10:44 10° SSE
COSMO-SKYMED 1 3.5 18:00:25 10° N 18:04:42 54° W 18:09:03 10° SSW
CSL-04 DEB 4.4 18:01:54 10° NNE 18:05:47 59° ESE 18:09:43 10° S
Cosmos 1992 Rocket 4.4 18:01:03 10° NNW 18:06:16 68° WSW 18:11:34 10° SSE
CENTAUR R/B 4.2 17:59:17 10° WNW 18:06:25 35° SW 18:12:38 10° SSE
CZ-2C R/B 2.8 18:01:11 10° NNE 18:06:42 57° ESE 18:12:15 10° S
H-2A R/B 3.5 18:02:46 10° N 18:06:43 41° W 18:10:41 10° SSW
IRIDIUM 103 4.4 18:02:27 10° S 18:07:42 58° E 18:12:51 10° NNE
Cosmos 1825 2.1 18:06:10 10° N 18:09:57 72° E 18:13:47 10° SSE
USA 234 3.3 18:03:28 10° SE 18:10:07 89° NE 18:16:44 10° NW
Cosmos 1408 3.5 18:09:47 10° NNW 18:13:27 54° W 18:17:10 10° S
Cosmos 1842 Rocket 3.7 18:10:07 10° S 18:14:30 51° E 18:18:53 10° NNE
Cosmos 1980 4.0 18:10:08 10° N 18:15:33 47° ENE 18:21:01 10° SE
Cosmos 405 Rocket 2.8 18:12:02 10° N 18:15:39 51° E 18:19:23 10° SSE
NOAA 6 4.2 18:14:09 10° SSE 18:19:13 50° E 18:24:12 10° N
Envisat 3.4 18:14:13 10° S 18:19:21 70° WSW 18:24:26 10° NNW
Radarsat Rocket 4.5 18:16:10 10° SSE 18:21:47 37° E 18:27:08 10° NNE
Cosmos 1356 3.3 18:21:52 10° N 18:25:18 78° E 18:28:46 10° SSE
IRIDIUM 106 4.3 18:20:44 10° S 18:26:03 86° E 18:31:19 10° N
Cosmos 1437 Rocket 3.2 18:24:03 10° S 18:27:37 36° ESE 18:31:09 10° NE
SL-16 R/B 3.5 18:23:50 10° NE 18:27:39 19° E 18:28:38 18° E
Cosmos 2221 2.4 18:25:44 10° S 18:30:05 78° E 18:34:23 10° N
CZ-4B DEB 4.3 18:24:53 10° SSE 18:30:22 57° ENE 18:35:44 10° N
CZ-4B R/B 2.6 18:27:33 10° N 18:30:28 41° W 18:33:27 10° SSW
Cosmos 1606 3.0 18:31:01 10° S 18:34:42 42° ESE 18:38:19 10° NNE
SL-8 R/B 3.7 18:30:43 10° WNW 18:35:35 89° NNE 18:38:38 23° ESE
Cosmos 1689 Rocket 2.1 18:32:54 10° NNE 18:35:40 47° ESE 18:38:31 10° S
ATLAS 3B R/B 2.9 18:30:29 10° NNW 18:38:02 90° SSW 18:45:29 10° SE
USA 102 4.1 18:31:23 10° NE 18:28:53 - NE 18:38:01 35° E
Meteor 2-15 Rocket 4.4 18:35:54 10° S 18:42:06 78° E 18:48:11 10° NNE
PSLV R/B 4.3 18:39:43 10° N 18:43:53 69° WNW 18:48:04 10° SSW
Cosmos 2333 Rocket 3.9 18:39:02 10° WNW 18:43:59 30° SW 18:48:59 10° S
Cosmos 1461 3.7 18:45:55 10° SSW 18:49:51 33° SE 18:50:14 33° ESE
Cosmos 1076 Rocket 3.4 18:45:37 10° N 18:49:54 85° E 18:54:18 10° S
Cosmos 1553 Rocket 3.9 18:46:12 10° S 18:52:18 60° E 18:58:19 10° NNE
Cosmos 1777 Rocket 3.9 18:48:03 10° SSW 18:53:23 70° ESE 18:58:37 10° NNE
H-2A R/B 4.2 19:00:07 10° NE 19:00:07 10° NE 19:00:11 10° NE
Genesis I 4.0 18:52:50 10° NW 18:56:42 50° SW 18:59:04 21° SSE
Cosmos 2237 Rocket 2.2 18:52:08 10° NNW 18:57:49 83° WSW 19:03:16 12° SSE
PSLV R/B 4.3 18:55:13 10° S 18:58:59 56° WSW 19:02:40 10° NNW
Cosmos 1809 Rocket 4.4 18:56:10 10° N 19:02:19 68° E 19:08:32 10° SSE
CZ-2C R/B 2.8 18:59:03 17° SSE 19:02:40 57° E 19:07:22 10° N
Cosmos 2151 2.8 18:59:35 10° N 19:03:47 65° E 19:05:43 31° SSE
CORIOLIS 4.1 18:58:19 10° SSE 19:03:51 85° ENE 19:09:20 10° NNW
ERS-2 2.0 19:02:32 10° NNE 19:06:12 89° ESE 19:09:57 10° SSW
CZ-2D R/B 4.4 19:08:10 30° NNE 19:08:10 30° NNE 19:10:25 10° N
Cosmos 1417 Rocket 4.4 19:00:36 10° S 19:07:02 67° E 19:13:19 10° NNE
SJ 16-02 2.2 19:03:30 10° S 19:06:30 33° SSE 19:06:30 33° SSE
Okean O Rocket 1.6 19:06:03 33° SSE 19:07:56 62° ENE 19:12:23 10° N
BREEZE-M DEB 3.7 19:07:19 10° W 19:09:25 24° SW 19:09:25 24° SW
ATLAS CENTAUR R/B 3.6 19:09:37 10° S 19:10:36 14° S 19:10:36 14° S
Cosmos 1633 2.7 19:09:32 10° NNW 19:13:06 72° W 19:14:15 41° S
Cosmos 1943 Rocket 3.5 19:12:48 10° S 19:15:54 24° SSE 19:15:54 24° SSE
Cosmos 1655 Rocket 3.9 19:14:22 10° N 19:20:38 67° E 19:27:01 10° SSE
Cosmos 2278 Rocket 2.9 19:17:25 10° SSW 19:22:59 53° WNW 19:28:30 10° N
Cosmos 1939 Rocket 3.5 19:23:03 19° S 19:25:58 58° WSW 19:30:03 10° NNW
Cosmos 2292 Rocket 4.1 19:22:15 10° NNW 19:26:16 63° W 19:31:42 10° S
Meteor 2-3 Rocket 3.6 19:20:47 10° N 19:26:22 74° E 19:29:42 26° SSE
Cosmos 2369 Rocket 4.2 19:24:51 10° S 19:25:49 13° SSE 19:25:49 13° SSE
CZ-4B R/B 3.2 19:24:24 10° SSE 19:29:47 78° WSW 19:35:06 10° NNW
H-2A R/B 2.9 19:33:35 50° NW 19:33:35 50° NW 19:36:34 10° NNW
Meteor 2-16 Rocket 4.3 19:26:45 10° N 19:32:46 63° E 19:33:55 53° SE
Lacrosse 5 2.2 19:30:23 10° SW 19:34:45 52° S 19:34:45 52° S
Meteor 2-21 Rocket 4.3 19:33:00 10° N 19:39:14 84° E 19:45:33 10° S
Atlas Centaur 2 4.0 19:46:08 10° WNW 19:51:13 27° N 19:52:48 24° NNE
USA 234 4.4 19:50:01 26° SSE 19:52:39 35° SSW 19:58:30 10° W
SL-16 R/B 2.7 20:05:35 10° NW 20:10:35 58° W 20:10:35 58° W
SJ 16-02 4.4 20:42:59 10° SW 20:43:33 12° WSW 20:43:33 12° WSW
